Miscellaneous Local Product
Issued by NWS North Platte, NE

Home | Current Version | Previous Version | Text Only | Print | Product List | Glossary On
Versions: 1 2 3 4 5 6 7 8 9 10 11 12 13 14 15 16 17 18 19 20 21 22 23 24 25 26 27 28 29 30 31 32 33 34 35 36 37 38 39 40 41 42 43 44 45 46 47 48 49 50
000
AXUS43 KLBF 032110
MISLBF


WESTERN AND NORTH CENTRAL NEBRASKA HOURLY WEATHER ROUNDUP
NATIONAL WEATHER SERVICE NORTH PLATTE NE
400 PM CDT MON AUG 03 2015

***STATIONS NOT REPORTING VARIABLES SUCH AS SKY/WEATHER OR
PRESSURE ARE PROVIDED BY THE NEBRASKA DEPARTMENT OF
ROADS...RAWS...AND APRS NETWORKS...AND ARE NOT UNDER
NATIONAL WEATHER SERVICE QUALITY CONTROL***

...OBSERVATIONS IN AND NEAR THE EASTERN PANHANDLE OF NEBRASKA...

CITY           SKY/WX    TMP DP  RH WIND       PRES   REMARKS
PINE RIDGE     PTSUNNY   88  61  40 E14G21    29.98F
CHADRON        PTSUNNY   89  61  38 E9        29.95F
ALLIANCE       PTSUNNY   87  61  41 S16       29.99F
SIDNEY         PTSUNNY   90  49  24 S18       30.02F
BIG SPRINGS      N/A     86  63  45 SE8         N/A
$$

...OBSERVATIONS IN NORTH CENTRAL NEBRASKA...

CITY           SKY/WX    TMP DP  RH WIND       PRES   REMARKS
THEDFORD       MOSUNNY   86  60  41 SE10G20   30.00F
AINSWORTH      MOSUNNY   80  60  50 E8        30.01F
O`NEILL        SUNNY     83  60  45 NE6       30.00F
ORD            MOSUNNY   83  59  44 E7        29.97F
BROKEN BOW     PTSUNNY   87  61  41 E12       29.98F
SPRINGVIEW       N/A     82  61  49 E6          N/A
CHAMBERS         N/A     84  58  40 E8          N/A
EWING            N/A     82  63  52 S3          N/A
$$

...OBSERVATIONS IN SOUTHWEST NEBRASKA AND FAR NORTHEAST COLORADO...

CITY           SKY/WX    TMP DP  RH WIND       PRES   REMARKS
WRAY           FAIR      90  50  24 E8        30.00S
HOLYOKE        FAIR      86  61  42 SE8       30.01F
IMPERIAL       CLOUDY    86  63  45 E10       29.98F
OGALLALA       PTSUNNY   88  64  45 SE13      29.98F
NORTH PLATTE   PTSUNNY   83  69  62 SE16      29.97F
MCCOOK         CLOUDY    90  68  48 E13       29.95F HX  94
LEXINGTON      PTSUNNY   85  69  58 S9        29.98S
PAXTON           N/A     85  69  59 S8          N/A
BRADY            N/A     83  69  63 N3          N/A
CALLAWAY         N/A     85  73  66 SE12        N/A  HX  91
$$

...NORTH PLATTE AREA...

CITY           SKY/WX    TMP DP  RH WIND       PRES   REMARKS
AIRPORT        PTSUNNY   83  69  62 SE16      29.97F
DOWNTOWN         N/A     85  71  62 E5G14       N/A  HX  90
SANDRIDGE        N/A     86  70  59 E3G12       N/A  HX  91
HILLCREST        N/A     84  69  59 SE12        N/A
$$

...SOME WEATHER OBSERVATIONS FROM AROUND THE REGION...

CITY           SKY/WX    TMP DP  RH WIND       PRES   REMARKS
DENVER         PTSUNNY   86  29  12 SE21G28   30.08F
LARAMIE        CLOUDY    80  37  21 SE23G29   30.17F
CHEYENNE       CLOUDY    80  44  27 S21G30    30.14R
SCOTTSBLUFF    CLOUDY    88  61  40 E15       29.98F
RAPID CITY     MOSUNNY   83  59  44 SE10G20   29.99
PIERRE         SUNNY     84  53  34 VRB5      29.95F
WINNER         FAIR      87  56  34 E12       29.98F
SIOUX FALLS    MOSUNNY   81  58  45 W5        29.97F
OMAHA          PTSUNNY   82  61  48 NW5       29.97F
GRAND ISLAND   PTSUNNY   82  67  60 E12       29.98F
KANSAS CITY    MOSUNNY   84  69  60 E12       29.93F
WICHITA        PTSUNNY   91  69  48 S7        29.92F HX  96
HAYS           PTSUNNY   93  66  40 SE14      29.92F HX  96
LIBERAL        SUNNY     90  63  40 S7G20     29.95F HX  90
GOODLAND       PTSUNNY   91  59  33 SE16      29.99F HX  90
$$



USA.gov is the U.S. government's official web portal to all federal, state and local government web resources and services.